Index of /20260427/WXO-DD/model_rdps/10km/06/011
Name Last modified Size Description
Parent Directory -
20260427T06Z_MSC_RDPS_AbsoluteVorticity_IsbL-0250_RLatLon0.09_PT011H.grib2 2026-04-27 08:42 606K
20260427T06Z_MSC_RDPS_AbsoluteVorticity_IsbL-0500_RLatLon0.09_PT011H.grib2 2026-04-27 08:42 555K
20260427T06Z_MSC_RDPS_AbsoluteVorticity_IsbL-0700_RLatLon0.09_PT011H.grib2 2026-04-27 08:42 620K
20260427T06Z_MSC_RDPS_AbsoluteVorticity_IsbL-0850_RLatLon0.09_PT011H.grib2 2026-04-27 08:42 783K
20260427T06Z_MSC_RDPS_AirTemp_AGL-120m_RLatLon0.09_PT011H.grib2 2026-04-27 08:42 384K
20260427T06Z_MSC_RDPS_AirTemp_AGL-2m_RLatLon0.09_PT011H.grib2 2026-04-27 08:42 640K
20260427T06Z_MSC_RDPS_AirTemp_AGL-40m_RLatLon0.09_PT011H.grib2 2026-04-27 08:42 409K
20260427T06Z_MSC_RDPS_AirTemp_AGL-80m_RLatLon0.09_PT011H.grib2 2026-04-27 08:42 404K
20260427T06Z_MSC_RDPS_AirTemp_IsbL-0001_RLatLon0.09_PT011H.grib2 2026-04-27 08:42 279K
20260427T06Z_MSC_RDPS_AirTemp_IsbL-0005_RLatLon0.09_PT011H.grib2 2026-04-27 08:42 288K
20260427T06Z_MSC_RDPS_AirTemp_IsbL-0010_RLatLon0.09_PT011H.grib2 2026-04-27 08:42 298K
20260427T06Z_MSC_RDPS_AirTemp_IsbL-0020_RLatLon0.09_PT011H.grib2 2026-04-27 08:42 314K
20260427T06Z_MSC_RDPS_AirTemp_IsbL-0030_RLatLon0.09_PT011H.grib2 2026-04-27 08:42 328K
20260427T06Z_MSC_RDPS_AirTemp_IsbL-0050_RLatLon0.09_PT011H.grib2 2026-04-27 08:42 311K
20260427T06Z_MSC_RDPS_AirTemp_IsbL-0100_RLatLon0.09_PT011H.grib2 2026-04-27 08:42 417K
20260427T06Z_MSC_RDPS_AirTemp_IsbL-0150_RLatLon0.09_PT011H.grib2 2026-04-27 08:42 413K
20260427T06Z_MSC_RDPS_AirTemp_IsbL-0175_RLatLon0.09_PT011H.grib2 2026-04-27 08:42 405K
20260427T06Z_MSC_RDPS_AirTemp_IsbL-0200_RLatLon0.09_PT011H.grib2 2026-04-27 08:42 413K
20260427T06Z_MSC_RDPS_AirTemp_IsbL-0225_RLatLon0.09_PT011H.grib2 2026-04-27 08:42 416K
20260427T06Z_MSC_RDPS_AirTemp_IsbL-0250_RLatLon0.09_PT011H.grib2 2026-04-27 08:42 421K
20260427T06Z_MSC_RDPS_AirTemp_IsbL-0275_RLatLon0.09_PT011H.grib2 2026-04-27 08:42 402K
20260427T06Z_MSC_RDPS_AirTemp_IsbL-0300_RLatLon0.09_PT011H.grib2 2026-04-27 08:42 407K
20260427T06Z_MSC_RDPS_AirTemp_IsbL-0350_RLatLon0.09_PT011H.grib2 2026-04-27 08:42 419K
20260427T06Z_MSC_RDPS_AirTemp_IsbL-0400_RLatLon0.09_PT011H.grib2 2026-04-27 08:42 420K
20260427T06Z_MSC_RDPS_AirTemp_IsbL-0450_RLatLon0.09_PT011H.grib2 2026-04-27 08:42 427K
20260427T06Z_MSC_RDPS_AirTemp_IsbL-0500_RLatLon0.09_PT011H.grib2 2026-04-27 08:42 439K
20260427T06Z_MSC_RDPS_AirTemp_IsbL-0550_RLatLon0.09_PT011H.grib2 2026-04-27 08:42 422K
20260427T06Z_MSC_RDPS_AirTemp_IsbL-0600_RLatLon0.09_PT011H.grib2 2026-04-27 08:42 440K
20260427T06Z_MSC_RDPS_AirTemp_IsbL-0650_RLatLon0.09_PT011H.grib2 2026-04-27 08:42 456K
20260427T06Z_MSC_RDPS_AirTemp_IsbL-0700_RLatLon0.09_PT011H.grib2 2026-04-27 08:42 482K
20260427T06Z_MSC_RDPS_AirTemp_IsbL-0750_RLatLon0.09_PT011H.grib2 2026-04-27 08:42 415K
20260427T06Z_MSC_RDPS_AirTemp_IsbL-0800_RLatLon0.09_PT011H.grib2 2026-04-27 08:42 464K
20260427T06Z_MSC_RDPS_AirTemp_IsbL-0850_RLatLon0.09_PT011H.grib2 2026-04-27 08:42 511K
20260427T06Z_MSC_RDPS_AirTemp_IsbL-0875_RLatLon0.09_PT011H.grib2 2026-04-27 08:42 526K
20260427T06Z_MSC_RDPS_AirTemp_IsbL-0900_RLatLon0.09_PT011H.grib2 2026-04-27 08:42 532K
20260427T06Z_MSC_RDPS_AirTemp_IsbL-0925_RLatLon0.09_PT011H.grib2 2026-04-27 08:42 534K
20260427T06Z_MSC_RDPS_AirTemp_IsbL-0950_RLatLon0.09_PT011H.grib2 2026-04-27 08:42 536K
20260427T06Z_MSC_RDPS_AirTemp_IsbL-0970_RLatLon0.09_PT011H.grib2 2026-04-27 08:42 533K
20260427T06Z_MSC_RDPS_AirTemp_IsbL-0985_RLatLon0.09_PT011H.grib2 2026-04-27 08:42 526K
20260427T06Z_MSC_RDPS_AirTemp_IsbL-1000_RLatLon0.09_PT011H.grib2 2026-04-27 08:42 521K
20260427T06Z_MSC_RDPS_AirTemp_IsbL-1015_RLatLon0.09_PT011H.grib2 2026-04-27 08:42 517K
20260427T06Z_MSC_RDPS_Albedo_Sfc_RLatLon0.09_PT011H.grib2 2026-04-27 08:42 161K
20260427T06Z_MSC_RDPS_CAPE_Sfc_RLatLon0.09_PT011H.grib2 2026-04-27 08:42 1.8M
20260427T06Z_MSC_RDPS_CIN_Sfc_RLatLon0.09_PT011H.grib2 2026-04-27 08:42 1.1M
20260427T06Z_MSC_RDPS_CloudWater_EAtm_RLatLon0.09_PT011H.grib2 2026-04-27 08:42 216K
20260427T06Z_MSC_RDPS_ConvectivePrecip-Accum_Sfc_RLatLon0.09_PT011H.grib2 2026-04-27 08:42 608K
20260427T06Z_MSC_RDPS_DewPointDepression_AGL-2m_RLatLon0.09_PT011H.grib2 2026-04-27 08:42 424K
20260427T06Z_MSC_RDPS_DewPointDepression_IsbL-0001_RLatLon0.09_PT011H.grib2 2026-04-27 08:42 193
20260427T06Z_MSC_RDPS_DewPointDepression_IsbL-0005_RLatLon0.09_PT011H.grib2 2026-04-27 08:42 193
20260427T06Z_MSC_RDPS_DewPointDepression_IsbL-0010_RLatLon0.09_PT011H.grib2 2026-04-27 08:42 193
20260427T06Z_MSC_RDPS_DewPointDepression_IsbL-0020_RLatLon0.09_PT011H.grib2 2026-04-27 08:42 193
20260427T06Z_MSC_RDPS_DewPointDepression_IsbL-0030_RLatLon0.09_PT011H.grib2 2026-04-27 08:42 193
20260427T06Z_MSC_RDPS_DewPointDepression_IsbL-0050_RLatLon0.09_PT011H.grib2 2026-04-27 08:42 118K
20260427T06Z_MSC_RDPS_DewPointDepression_IsbL-0100_RLatLon0.09_PT011H.grib2 2026-04-27 08:42 123K
20260427T06Z_MSC_RDPS_DewPointDepression_IsbL-0150_RLatLon0.09_PT011H.grib2 2026-04-27 08:42 150K
20260427T06Z_MSC_RDPS_DewPointDepression_IsbL-0175_RLatLon0.09_PT011H.grib2 2026-04-27 08:42 181K
20260427T06Z_MSC_RDPS_DewPointDepression_IsbL-0200_RLatLon0.09_PT011H.grib2 2026-04-27 08:42 222K
20260427T06Z_MSC_RDPS_DewPointDepression_IsbL-0225_RLatLon0.09_PT011H.grib2 2026-04-27 08:42 261K
20260427T06Z_MSC_RDPS_DewPointDepression_IsbL-0250_RLatLon0.09_PT011H.grib2 2026-04-27 08:42 298K
20260427T06Z_MSC_RDPS_DewPointDepression_IsbL-0275_RLatLon0.09_PT011H.grib2 2026-04-27 08:42 309K
20260427T06Z_MSC_RDPS_DewPointDepression_IsbL-0300_RLatLon0.09_PT011H.grib2 2026-04-27 08:42 325K
20260427T06Z_MSC_RDPS_DewPointDepression_IsbL-0350_RLatLon0.09_PT011H.grib2 2026-04-27 08:42 330K
20260427T06Z_MSC_RDPS_DewPointDepression_IsbL-0400_RLatLon0.09_PT011H.grib2 2026-04-27 08:42 342K
20260427T06Z_MSC_RDPS_DewPointDepression_IsbL-0450_RLatLon0.09_PT011H.grib2 2026-04-27 08:42 351K
20260427T06Z_MSC_RDPS_DewPointDepression_IsbL-0500_RLatLon0.09_PT011H.grib2 2026-04-27 08:42 354K
20260427T06Z_MSC_RDPS_DewPointDepression_IsbL-0550_RLatLon0.09_PT011H.grib2 2026-04-27 08:42 363K
20260427T06Z_MSC_RDPS_DewPointDepression_IsbL-0600_RLatLon0.09_PT011H.grib2 2026-04-27 08:42 376K
20260427T06Z_MSC_RDPS_DewPointDepression_IsbL-0650_RLatLon0.09_PT011H.grib2 2026-04-27 08:42 383K
20260427T06Z_MSC_RDPS_DewPointDepression_IsbL-0700_RLatLon0.09_PT011H.grib2 2026-04-27 08:42 397K
20260427T06Z_MSC_RDPS_DewPointDepression_IsbL-0750_RLatLon0.09_PT011H.grib2 2026-04-27 08:42 425K
20260427T06Z_MSC_RDPS_DewPointDepression_IsbL-0800_RLatLon0.09_PT011H.grib2 2026-04-27 08:42 459K
20260427T06Z_MSC_RDPS_DewPointDepression_IsbL-0850_RLatLon0.09_PT011H.grib2 2026-04-27 08:42 484K
20260427T06Z_MSC_RDPS_DewPointDepression_IsbL-0875_RLatLon0.09_PT011H.grib2 2026-04-27 08:42 483K
20260427T06Z_MSC_RDPS_DewPointDepression_IsbL-0900_RLatLon0.09_PT011H.grib2 2026-04-27 08:42 473K
20260427T06Z_MSC_RDPS_DewPointDepression_IsbL-0925_RLatLon0.09_PT011H.grib2 2026-04-27 08:42 463K
20260427T06Z_MSC_RDPS_DewPointDepression_IsbL-0950_RLatLon0.09_PT011H.grib2 2026-04-27 08:42 456K
20260427T06Z_MSC_RDPS_DewPointDepression_IsbL-0970_RLatLon0.09_PT011H.grib2 2026-04-27 08:42 448K
20260427T06Z_MSC_RDPS_DewPointDepression_IsbL-0985_RLatLon0.09_PT011H.grib2 2026-04-27 08:42 444K
20260427T06Z_MSC_RDPS_DewPointDepression_IsbL-1000_RLatLon0.09_PT011H.grib2 2026-04-27 08:42 439K
20260427T06Z_MSC_RDPS_DewPointDepression_IsbL-1015_RLatLon0.09_PT011H.grib2 2026-04-27 08:42 433K
20260427T06Z_MSC_RDPS_DewPoint_AGL-2m_RLatLon0.09_PT011H.grib2 2026-04-27 08:42 409K
20260427T06Z_MSC_RDPS_DownwardLongwaveRadiationFlux-Accum_Sfc_RLatLon0.09_PT011H.grib2 2026-04-27 08:42 468K
20260427T06Z_MSC_RDPS_DownwardShortwaveRadiationFlux-Accum_NTAtm_RLatLon0.09_PT011H.grib2 2026-04-27 08:42 109K
20260427T06Z_MSC_RDPS_DownwardShortwaveRadiationFlux-Accum_Sfc_RLatLon0.09_PT011H.grib2 2026-04-27 08:42 458K
20260427T06Z_MSC_RDPS_FreezingRain-Accum1h_Sfc_RLatLon0.09_PT011H.grib2 2026-04-27 08:42 17K
20260427T06Z_MSC_RDPS_FreezingRain-Accum_Sfc_RLatLon0.09_PT011H.grib2 2026-04-27 08:42 83K
20260427T06Z_MSC_RDPS_GeopotentialHeight_IsbL-0001_RLatLon0.09_PT011H.grib2 2026-04-27 08:42 276K
20260427T06Z_MSC_RDPS_GeopotentialHeight_IsbL-0005_RLatLon0.09_PT011H.grib2 2026-04-27 08:42 339K
20260427T06Z_MSC_RDPS_GeopotentialHeight_IsbL-0010_RLatLon0.09_PT011H.grib2 2026-04-27 08:42 307K
20260427T06Z_MSC_RDPS_GeopotentialHeight_IsbL-0020_RLatLon0.09_PT011H.grib2 2026-04-27 08:42 306K
20260427T06Z_MSC_RDPS_GeopotentialHeight_IsbL-0030_RLatLon0.09_PT011H.grib2 2026-04-27 08:42 307K
20260427T06Z_MSC_RDPS_GeopotentialHeight_IsbL-0050_RLatLon0.09_PT011H.grib2 2026-04-27 08:42 308K
20260427T06Z_MSC_RDPS_GeopotentialHeight_IsbL-0100_RLatLon0.09_PT011H.grib2 2026-04-27 08:42 286K
20260427T06Z_MSC_RDPS_GeopotentialHeight_IsbL-0150_RLatLon0.09_PT011H.grib2 2026-04-27 08:42 226K
20260427T06Z_MSC_RDPS_GeopotentialHeight_IsbL-0175_RLatLon0.09_PT011H.grib2 2026-04-27 08:42 230K
20260427T06Z_MSC_RDPS_GeopotentialHeight_IsbL-0200_RLatLon0.09_PT011H.grib2 2026-04-27 08:42 233K
20260427T06Z_MSC_RDPS_GeopotentialHeight_IsbL-0225_RLatLon0.09_PT011H.grib2 2026-04-27 08:42 235K
20260427T06Z_MSC_RDPS_GeopotentialHeight_IsbL-0250_RLatLon0.09_PT011H.grib2 2026-04-27 08:42 236K
20260427T06Z_MSC_RDPS_GeopotentialHeight_IsbL-0275_RLatLon0.09_PT011H.grib2 2026-04-27 08:42 236K
20260427T06Z_MSC_RDPS_GeopotentialHeight_IsbL-0300_RLatLon0.09_PT011H.grib2 2026-04-27 08:42 235K
20260427T06Z_MSC_RDPS_GeopotentialHeight_IsbL-0350_RLatLon0.09_PT011H.grib2 2026-04-27 08:42 231K
20260427T06Z_MSC_RDPS_GeopotentialHeight_IsbL-0400_RLatLon0.09_PT011H.grib2 2026-04-27 08:42 227K
20260427T06Z_MSC_RDPS_GeopotentialHeight_IsbL-0450_RLatLon0.09_PT011H.grib2 2026-04-27 08:42 295K
20260427T06Z_MSC_RDPS_GeopotentialHeight_IsbL-0500_RLatLon0.09_PT011H.grib2 2026-04-27 08:42 291K
20260427T06Z_MSC_RDPS_GeopotentialHeight_IsbL-0550_RLatLon0.09_PT011H.grib2 2026-04-27 08:42 287K
20260427T06Z_MSC_RDPS_GeopotentialHeight_IsbL-0600_RLatLon0.09_PT011H.grib2 2026-04-27 08:42 283K
20260427T06Z_MSC_RDPS_GeopotentialHeight_IsbL-0650_RLatLon0.09_PT011H.grib2 2026-04-27 08:42 282K
20260427T06Z_MSC_RDPS_GeopotentialHeight_IsbL-0700_RLatLon0.09_PT011H.grib2 2026-04-27 08:42 282K
20260427T06Z_MSC_RDPS_GeopotentialHeight_IsbL-0750_RLatLon0.09_PT011H.grib2 2026-04-27 08:42 256K
20260427T06Z_MSC_RDPS_GeopotentialHeight_IsbL-0800_RLatLon0.09_PT011H.grib2 2026-04-27 08:42 263K
20260427T06Z_MSC_RDPS_GeopotentialHeight_IsbL-0850_RLatLon0.09_PT011H.grib2 2026-04-27 08:42 271K
20260427T06Z_MSC_RDPS_GeopotentialHeight_IsbL-0875_RLatLon0.09_PT011H.grib2 2026-04-27 08:42 274K
20260427T06Z_MSC_RDPS_GeopotentialHeight_IsbL-0900_RLatLon0.09_PT011H.grib2 2026-04-27 08:42 278K
20260427T06Z_MSC_RDPS_GeopotentialHeight_IsbL-0925_RLatLon0.09_PT011H.grib2 2026-04-27 08:42 280K
20260427T06Z_MSC_RDPS_GeopotentialHeight_IsbL-0950_RLatLon0.09_PT011H.grib2 2026-04-27 08:42 284K
20260427T06Z_MSC_RDPS_GeopotentialHeight_IsbL-0970_RLatLon0.09_PT011H.grib2 2026-04-27 08:42 290K
20260427T06Z_MSC_RDPS_GeopotentialHeight_IsbL-0985_RLatLon0.09_PT011H.grib2 2026-04-27 08:42 298K
20260427T06Z_MSC_RDPS_GeopotentialHeight_IsbL-1000_RLatLon0.09_PT011H.grib2 2026-04-27 08:42 309K
20260427T06Z_MSC_RDPS_GeopotentialHeight_IsbL-1015_RLatLon0.09_PT011H.grib2 2026-04-27 08:42 322K
20260427T06Z_MSC_RDPS_Humidex_Sfc_RLatLon0.09_PT011H.grib2 2026-04-27 08:42 2.4M
20260427T06Z_MSC_RDPS_IcePellets-Accum1h_Sfc_RLatLon0.09_PT011H.grib2 2026-04-27 08:42 5.1K
20260427T06Z_MSC_RDPS_IcePellets-Accum_Sfc_RLatLon0.09_PT011H.grib2 2026-04-27 08:42 11K
20260427T06Z_MSC_RDPS_KIndex_Sfc_RLatLon0.09_PT011H.grib2 2026-04-27 08:42 2.4M
20260427T06Z_MSC_RDPS_LatentHeatNetFlux_Sfc_RLatLon0.09_PT011H.grib2 2026-04-27 08:42 311K
20260427T06Z_MSC_RDPS_LiftedIndex-MU-VT_IsbL-0500_RLatLon0.09_PT011H.grib2 2026-04-27 08:42 2.4M
20260427T06Z_MSC_RDPS_NetLongwaveRadiationFlux-Accum_Sfc_RLatLon0.09_PT011H.grib2 2026-04-27 08:42 609K
20260427T06Z_MSC_RDPS_NetShortwaveRadiationFlux-Accum_Sfc_RLatLon0.09_PT011H.grib2 2026-04-27 08:42 452K
20260427T06Z_MSC_RDPS_PlanetaryBoundaryLayerHeight_Sfc_RLatLon0.09_PT011H.grib2 2026-04-27 08:42 1.0M
20260427T06Z_MSC_RDPS_Precip-Accum1h_Sfc_RLatLon0.09_PT011H.grib2 2026-04-27 08:42 1.3M
20260427T06Z_MSC_RDPS_Precip-Accum_Sfc_RLatLon0.09_PT011H.grib2 2026-04-27 08:42 1.5M
20260427T06Z_MSC_RDPS_PrecipRate_Sfc_RLatLon0.09_PT011H.grib2 2026-04-27 08:42 234K
20260427T06Z_MSC_RDPS_PrecipType-Instant_Sfc_RLatLon0.09_PT011H.grib2 2026-04-27 08:42 567K
20260427T06Z_MSC_RDPS_Pressure-Trend3h_Sfc_RLatLon0.09_PT011H.grib2 2026-04-27 08:42 1.2M
20260427T06Z_MSC_RDPS_Pressure_MSL_RLatLon0.09_PT011H.grib2 2026-04-27 08:42 300K
20260427T06Z_MSC_RDPS_Pressure_PVU-1.5_RLatLon0.09_PT011H.grib2 2026-04-27 08:42 2.5M
20260427T06Z_MSC_RDPS_Pressure_PVU-1_RLatLon0.09_PT011H.grib2 2026-04-27 08:42 2.4M
20260427T06Z_MSC_RDPS_Pressure_PVU-2_RLatLon0.09_PT011H.grib2 2026-04-27 08:42 2.4M
20260427T06Z_MSC_RDPS_Pressure_Sfc_RLatLon0.09_PT011H.grib2 2026-04-27 08:42 501K
20260427T06Z_MSC_RDPS_RadiativeTemp_Sfc_RLatLon0.09_PT011H.grib2 2026-04-27 08:42 327K
20260427T06Z_MSC_RDPS_Rain-Accum1h_Sfc_RLatLon0.09_PT011H.grib2 2026-04-27 08:42 682K
20260427T06Z_MSC_RDPS_Rain-Accum_Sfc_RLatLon0.09_PT011H.grib2 2026-04-27 08:42 1.1M
20260427T06Z_MSC_RDPS_RelativeHumidity_AGL-2m_RLatLon0.09_PT011H.grib2 2026-04-27 08:42 1.0M
20260427T06Z_MSC_RDPS_RelativeHumidity_IsbL-0010_RLatLon0.09_PT011H.grib2 2026-04-27 08:42 631K
20260427T06Z_MSC_RDPS_RelativeHumidity_IsbL-0020_RLatLon0.09_PT011H.grib2 2026-04-27 08:42 654K
20260427T06Z_MSC_RDPS_RelativeHumidity_IsbL-0030_RLatLon0.09_PT011H.grib2 2026-04-27 08:42 534K
20260427T06Z_MSC_RDPS_RelativeHumidity_IsbL-0050_RLatLon0.09_PT011H.grib2 2026-04-27 08:42 320K
20260427T06Z_MSC_RDPS_RelativeHumidity_IsbL-0100_RLatLon0.09_PT011H.grib2 2026-04-27 08:42 268K
20260427T06Z_MSC_RDPS_RelativeHumidity_IsbL-0150_RLatLon0.09_PT011H.grib2 2026-04-27 08:42 396K
20260427T06Z_MSC_RDPS_RelativeHumidity_IsbL-0175_RLatLon0.09_PT011H.grib2 2026-04-27 08:42 469K
20260427T06Z_MSC_RDPS_RelativeHumidity_IsbL-0200_RLatLon0.09_PT011H.grib2 2026-04-27 08:42 547K
20260427T06Z_MSC_RDPS_RelativeHumidity_IsbL-0225_RLatLon0.09_PT011H.grib2 2026-04-27 08:42 611K
20260427T06Z_MSC_RDPS_RelativeHumidity_IsbL-0250_RLatLon0.09_PT011H.grib2 2026-04-27 08:42 678K
20260427T06Z_MSC_RDPS_RelativeHumidity_IsbL-0275_RLatLon0.09_PT011H.grib2 2026-04-27 08:42 710K
20260427T06Z_MSC_RDPS_RelativeHumidity_IsbL-0300_RLatLon0.09_PT011H.grib2 2026-04-27 08:42 756K
20260427T06Z_MSC_RDPS_RelativeHumidity_IsbL-0350_RLatLon0.09_PT011H.grib2 2026-04-27 08:42 775K
20260427T06Z_MSC_RDPS_RelativeHumidity_IsbL-0400_RLatLon0.09_PT011H.grib2 2026-04-27 08:42 786K
20260427T06Z_MSC_RDPS_RelativeHumidity_IsbL-0450_RLatLon0.09_PT011H.grib2 2026-04-27 08:42 797K
20260427T06Z_MSC_RDPS_RelativeHumidity_IsbL-0500_RLatLon0.09_PT011H.grib2 2026-04-27 08:42 813K
20260427T06Z_MSC_RDPS_RelativeHumidity_IsbL-0550_RLatLon0.09_PT011H.grib2 2026-04-27 08:42 820K
20260427T06Z_MSC_RDPS_RelativeHumidity_IsbL-0600_RLatLon0.09_PT011H.grib2 2026-04-27 08:42 850K
20260427T06Z_MSC_RDPS_RelativeHumidity_IsbL-0650_RLatLon0.09_PT011H.grib2 2026-04-27 08:42 864K
20260427T06Z_MSC_RDPS_RelativeHumidity_IsbL-0700_RLatLon0.09_PT011H.grib2 2026-04-27 08:42 896K
20260427T06Z_MSC_RDPS_RelativeHumidity_IsbL-0750_RLatLon0.09_PT011H.grib2 2026-04-27 08:42 947K
20260427T06Z_MSC_RDPS_RelativeHumidity_IsbL-0800_RLatLon0.09_PT011H.grib2 2026-04-27 08:42 1.0M
20260427T06Z_MSC_RDPS_RelativeHumidity_IsbL-0850_RLatLon0.09_PT011H.grib2 2026-04-27 08:42 1.1M
20260427T06Z_MSC_RDPS_RelativeHumidity_IsbL-0875_RLatLon0.09_PT011H.grib2 2026-04-27 08:42 1.1M
20260427T06Z_MSC_RDPS_RelativeHumidity_IsbL-0900_RLatLon0.09_PT011H.grib2 2026-04-27 08:42 1.1M
20260427T06Z_MSC_RDPS_RelativeHumidity_IsbL-0925_RLatLon0.09_PT011H.grib2 2026-04-27 08:42 1.1M
20260427T06Z_MSC_RDPS_RelativeHumidity_IsbL-0950_RLatLon0.09_PT011H.grib2 2026-04-27 08:42 1.1M
20260427T06Z_MSC_RDPS_RelativeHumidity_IsbL-0970_RLatLon0.09_PT011H.grib2 2026-04-27 08:42 1.1M
20260427T06Z_MSC_RDPS_RelativeHumidity_IsbL-0985_RLatLon0.09_PT011H.grib2 2026-04-27 08:42 1.0M
20260427T06Z_MSC_RDPS_RelativeHumidity_IsbL-1000_RLatLon0.09_PT011H.grib2 2026-04-27 08:42 1.0M
20260427T06Z_MSC_RDPS_RelativeHumidity_IsbL-1015_RLatLon0.09_PT011H.grib2 2026-04-27 08:42 1.0M
20260427T06Z_MSC_RDPS_Runoff-Accum_Sfc_RLatLon0.09_PT011H.grib2 2026-04-27 08:42 31K
20260427T06Z_MSC_RDPS_SWEATIndex_Sfc_RLatLon0.09_PT011H.grib2 2026-04-27 08:42 2.4M
20260427T06Z_MSC_RDPS_SeeingIndex_EAtm_RLatLon0.09_PT011H.grib2 2026-04-27 08:42 1.0M
20260427T06Z_MSC_RDPS_SensibleHeatNetFlux_Sfc_RLatLon0.09_PT011H.grib2 2026-04-27 08:42 374K
20260427T06Z_MSC_RDPS_ShowalterIndex_IsbL-0500_RLatLon0.09_PT011H.grib2 2026-04-27 08:42 2.6M
20260427T06Z_MSC_RDPS_SkyTransparencyIndex_EAtm_RLatLon0.09_PT011H.grib2 2026-04-27 08:42 735K
20260427T06Z_MSC_RDPS_Snow-Accum1h_Sfc_RLatLon0.09_PT011H.grib2 2026-04-27 08:42 401K
20260427T06Z_MSC_RDPS_Snow-Accum_Sfc_RLatLon0.09_PT011H.grib2 2026-04-27 08:42 667K
20260427T06Z_MSC_RDPS_SnowDensity_Sfc_RLatLon0.09_PT011H.grib2 2026-04-27 08:42 180K
20260427T06Z_MSC_RDPS_SnowDepth_Sfc_RLatLon0.09_PT011H.grib2 2026-04-27 08:42 720K
20260427T06Z_MSC_RDPS_SoilTemp_DBS-0to10cm_RLatLon0.09_PT011H.grib2 2026-04-27 08:42 208K
20260427T06Z_MSC_RDPS_SoilTemp_Sfc_RLatLon0.09_PT011H.grib2 2026-04-27 08:42 293K
20260427T06Z_MSC_RDPS_SoilVolumetricIceContent_Sfc_RLatLon0.09_PT011H.grib2 2026-04-27 08:42 169K
20260427T06Z_MSC_RDPS_SoilVolumetricWaterContent_DBS-0to10cm_RLatLon0.09_PT011H.grib2 2026-04-27 08:42 258K
20260427T06Z_MSC_RDPS_SoilVolumetricWaterContent_DBS-0to1cm_RLatLon0.09_PT011H.grib2 2026-04-27 08:42 333K
20260427T06Z_MSC_RDPS_SpecificHumidity_AGL-120m_RLatLon0.09_PT011H.grib2 2026-04-27 08:42 498K
20260427T06Z_MSC_RDPS_SpecificHumidity_AGL-2m_RLatLon0.09_PT011H.grib2 2026-04-27 08:42 668K
20260427T06Z_MSC_RDPS_SpecificHumidity_AGL-40m_RLatLon0.09_PT011H.grib2 2026-04-27 08:42 502K
20260427T06Z_MSC_RDPS_SpecificHumidity_AGL-80m_RLatLon0.09_PT011H.grib2 2026-04-27 08:42 499K
20260427T06Z_MSC_RDPS_SpecificHumidity_IsbL-0001_RLatLon0.09_PT011H.grib2 2026-04-27 08:42 344K
20260427T06Z_MSC_RDPS_SpecificHumidity_IsbL-0005_RLatLon0.09_PT011H.grib2 2026-04-27 08:42 359K
20260427T06Z_MSC_RDPS_SpecificHumidity_IsbL-0010_RLatLon0.09_PT011H.grib2 2026-04-27 08:42 396K
20260427T06Z_MSC_RDPS_SpecificHumidity_IsbL-0020_RLatLon0.09_PT011H.grib2 2026-04-27 08:42 388K
20260427T06Z_MSC_RDPS_SpecificHumidity_IsbL-0030_RLatLon0.09_PT011H.grib2 2026-04-27 08:42 478K
20260427T06Z_MSC_RDPS_SpecificHumidity_IsbL-0050_RLatLon0.09_PT011H.grib2 2026-04-27 08:42 466K
20260427T06Z_MSC_RDPS_SpecificHumidity_IsbL-0100_RLatLon0.09_PT011H.grib2 2026-04-27 08:42 412K
20260427T06Z_MSC_RDPS_SpecificHumidity_IsbL-0150_RLatLon0.09_PT011H.grib2 2026-04-27 08:42 439K
20260427T06Z_MSC_RDPS_SpecificHumidity_IsbL-0175_RLatLon0.09_PT011H.grib2 2026-04-27 08:42 436K
20260427T06Z_MSC_RDPS_SpecificHumidity_IsbL-0200_RLatLon0.09_PT011H.grib2 2026-04-27 08:42 449K
20260427T06Z_MSC_RDPS_SpecificHumidity_IsbL-0225_RLatLon0.09_PT011H.grib2 2026-04-27 08:42 552K
20260427T06Z_MSC_RDPS_SpecificHumidity_IsbL-0250_RLatLon0.09_PT011H.grib2 2026-04-27 08:42 548K
20260427T06Z_MSC_RDPS_SpecificHumidity_IsbL-0275_RLatLon0.09_PT011H.grib2 2026-04-27 08:42 467K
20260427T06Z_MSC_RDPS_SpecificHumidity_IsbL-0300_RLatLon0.09_PT011H.grib2 2026-04-27 08:42 538K
20260427T06Z_MSC_RDPS_SpecificHumidity_IsbL-0350_RLatLon0.09_PT011H.grib2 2026-04-27 08:42 528K
20260427T06Z_MSC_RDPS_SpecificHumidity_IsbL-0400_RLatLon0.09_PT011H.grib2 2026-04-27 08:42 509K
20260427T06Z_MSC_RDPS_SpecificHumidity_IsbL-0450_RLatLon0.09_PT011H.grib2 2026-04-27 08:42 565K
20260427T06Z_MSC_RDPS_SpecificHumidity_IsbL-0500_RLatLon0.09_PT011H.grib2 2026-04-27 08:42 500K
20260427T06Z_MSC_RDPS_SpecificHumidity_IsbL-0550_RLatLon0.09_PT011H.grib2 2026-04-27 08:42 554K
20260427T06Z_MSC_RDPS_SpecificHumidity_IsbL-0600_RLatLon0.09_PT011H.grib2 2026-04-27 08:42 620K
20260427T06Z_MSC_RDPS_SpecificHumidity_IsbL-0650_RLatLon0.09_PT011H.grib2 2026-04-27 08:42 540K
20260427T06Z_MSC_RDPS_SpecificHumidity_IsbL-0700_RLatLon0.09_PT011H.grib2 2026-04-27 08:42 591K
20260427T06Z_MSC_RDPS_SpecificHumidity_IsbL-0750_RLatLon0.09_PT011H.grib2 2026-04-27 08:42 654K
20260427T06Z_MSC_RDPS_SpecificHumidity_IsbL-0800_RLatLon0.09_PT011H.grib2 2026-04-27 08:42 739K
20260427T06Z_MSC_RDPS_SpecificHumidity_IsbL-0850_RLatLon0.09_PT011H.grib2 2026-04-27 08:42 812K
20260427T06Z_MSC_RDPS_SpecificHumidity_IsbL-0875_RLatLon0.09_PT011H.grib2 2026-04-27 08:42 835K
20260427T06Z_MSC_RDPS_SpecificHumidity_IsbL-0900_RLatLon0.09_PT011H.grib2 2026-04-27 08:42 846K
20260427T06Z_MSC_RDPS_SpecificHumidity_IsbL-0925_RLatLon0.09_PT011H.grib2 2026-04-27 08:42 849K
20260427T06Z_MSC_RDPS_SpecificHumidity_IsbL-0950_RLatLon0.09_PT011H.grib2 2026-04-27 08:42 707K
20260427T06Z_MSC_RDPS_SpecificHumidity_IsbL-0970_RLatLon0.09_PT011H.grib2 2026-04-27 08:42 700K
20260427T06Z_MSC_RDPS_SpecificHumidity_IsbL-0985_RLatLon0.09_PT011H.grib2 2026-04-27 08:42 694K
20260427T06Z_MSC_RDPS_SpecificHumidity_IsbL-1000_RLatLon0.09_PT011H.grib2 2026-04-27 08:42 689K
20260427T06Z_MSC_RDPS_SpecificHumidity_IsbL-1015_RLatLon0.09_PT011H.grib2 2026-04-27 08:42 680K
20260427T06Z_MSC_RDPS_SpecificHumidity_Sfc_RLatLon0.09_PT011H.grib2 2026-04-27 08:42 338K
20260427T06Z_MSC_RDPS_StormRelativeHelicity_EtaL-10000_RLatLon0.09_PT011H.grib2 2026-04-27 08:42 1.1M
20260427T06Z_MSC_RDPS_StormSeverityIndex_EtaL-10000_RLatLon0.09_PT011H.grib2 2026-04-27 08:42 1.2M
20260427T06Z_MSC_RDPS_Thickness_IsbL-0850to0700_RLatLon0.09_PT011H.grib2 2026-04-27 08:42 178K
20260427T06Z_MSC_RDPS_Thickness_IsbL-1000to0500_RLatLon0.09_PT011H.grib2 2026-04-27 08:42 201K
20260427T06Z_MSC_RDPS_Thickness_IsbL-1000to0850_RLatLon0.09_PT011H.grib2 2026-04-27 08:42 191K
20260427T06Z_MSC_RDPS_TotalCloudCover_Sfc_RLatLon0.09_PT011H.grib2 2026-04-27 08:42 661K
20260427T06Z_MSC_RDPS_TotalTotalsIndex_Sfc_RLatLon0.09_PT011H.grib2 2026-04-27 08:42 2.4M
20260427T06Z_MSC_RDPS_UVIndex-ClearSky_Sfc_RLatLon0.09_PT011H.grib2 2026-04-27 08:42 221K
20260427T06Z_MSC_RDPS_UVIndex_Sfc_RLatLon0.09_PT011H.grib2 2026-04-27 08:42 505K
20260427T06Z_MSC_RDPS_UpwardLongwaveRadiationFlux_NTAtm_RLatLon0.09_PT011H.grib2 2026-04-27 08:42 492K
20260427T06Z_MSC_RDPS_UpwardShortwaveRadiationFlux_NTAtm_RLatLon0.09_PT011H.grib2 2026-04-27 08:42 545K
20260427T06Z_MSC_RDPS_VerticalVelocity_IsbL-0250_RLatLon0.09_PT011H.grib2 2026-04-27 08:42 676K
20260427T06Z_MSC_RDPS_VerticalVelocity_IsbL-0500_RLatLon0.09_PT011H.grib2 2026-04-27 08:42 668K
20260427T06Z_MSC_RDPS_VerticalVelocity_IsbL-0700_RLatLon0.09_PT011H.grib2 2026-04-27 08:42 590K
20260427T06Z_MSC_RDPS_VerticalVelocity_IsbL-0850_RLatLon0.09_PT011H.grib2 2026-04-27 08:42 703K
20260427T06Z_MSC_RDPS_VerticalWindShear_EtaL-6500_RLatLon0.09_PT011H.grib2 2026-04-27 08:42 1.2M
20260427T06Z_MSC_RDPS_WindChill_Sfc_RLatLon0.09_PT011H.grib2 2026-04-27 08:42 1.1M
20260427T06Z_MSC_RDPS_WindDir_AGL-10m_RLatLon0.09_PT011H.grib2 2026-04-27 08:42 1.0M
20260427T06Z_MSC_RDPS_WindDir_AGL-120m_RLatLon0.09_PT011H.grib2 2026-04-27 08:42 627K
20260427T06Z_MSC_RDPS_WindDir_AGL-40m_RLatLon0.09_PT011H.grib2 2026-04-27 08:42 648K
20260427T06Z_MSC_RDPS_WindDir_AGL-80m_RLatLon0.09_PT011H.grib2 2026-04-27 08:42 636K
20260427T06Z_MSC_RDPS_WindDir_IsbL-0001_RLatLon0.09_PT011H.grib2 2026-04-27 08:42 274K
20260427T06Z_MSC_RDPS_WindDir_IsbL-0005_RLatLon0.09_PT011H.grib2 2026-04-27 08:42 345K
20260427T06Z_MSC_RDPS_WindDir_IsbL-0010_RLatLon0.09_PT011H.grib2 2026-04-27 08:42 374K
20260427T06Z_MSC_RDPS_WindDir_IsbL-0020_RLatLon0.09_PT011H.grib2 2026-04-27 08:42 397K
20260427T06Z_MSC_RDPS_WindDir_IsbL-0030_RLatLon0.09_PT011H.grib2 2026-04-27 08:42 394K
20260427T06Z_MSC_RDPS_WindDir_IsbL-0050_RLatLon0.09_PT011H.grib2 2026-04-27 08:42 416K
20260427T06Z_MSC_RDPS_WindDir_IsbL-0100_RLatLon0.09_PT011H.grib2 2026-04-27 08:42 408K
20260427T06Z_MSC_RDPS_WindDir_IsbL-0150_RLatLon0.09_PT011H.grib2 2026-04-27 08:42 403K
20260427T06Z_MSC_RDPS_WindDir_IsbL-0175_RLatLon0.09_PT011H.grib2 2026-04-27 08:42 425K
20260427T06Z_MSC_RDPS_WindDir_IsbL-0200_RLatLon0.09_PT011H.grib2 2026-04-27 08:42 446K
20260427T06Z_MSC_RDPS_WindDir_IsbL-0225_RLatLon0.09_PT011H.grib2 2026-04-27 08:42 452K
20260427T06Z_MSC_RDPS_WindDir_IsbL-0250_RLatLon0.09_PT011H.grib2 2026-04-27 08:42 449K
20260427T06Z_MSC_RDPS_WindDir_IsbL-0275_RLatLon0.09_PT011H.grib2 2026-04-27 08:42 468K
20260427T06Z_MSC_RDPS_WindDir_IsbL-0300_RLatLon0.09_PT011H.grib2 2026-04-27 08:42 467K
20260427T06Z_MSC_RDPS_WindDir_IsbL-0350_RLatLon0.09_PT011H.grib2 2026-04-27 08:42 493K
20260427T06Z_MSC_RDPS_WindDir_IsbL-0400_RLatLon0.09_PT011H.grib2 2026-04-27 08:42 505K
20260427T06Z_MSC_RDPS_WindDir_IsbL-0450_RLatLon0.09_PT011H.grib2 2026-04-27 08:42 522K
20260427T06Z_MSC_RDPS_WindDir_IsbL-0500_RLatLon0.09_PT011H.grib2 2026-04-27 08:42 533K
20260427T06Z_MSC_RDPS_WindDir_IsbL-0550_RLatLon0.09_PT011H.grib2 2026-04-27 08:42 549K
20260427T06Z_MSC_RDPS_WindDir_IsbL-0600_RLatLon0.09_PT011H.grib2 2026-04-27 08:42 579K
20260427T06Z_MSC_RDPS_WindDir_IsbL-0650_RLatLon0.09_PT011H.grib2 2026-04-27 08:42 628K
20260427T06Z_MSC_RDPS_WindDir_IsbL-0700_RLatLon0.09_PT011H.grib2 2026-04-27 08:42 673K
20260427T06Z_MSC_RDPS_WindDir_IsbL-0750_RLatLon0.09_PT011H.grib2 2026-04-27 08:42 723K
20260427T06Z_MSC_RDPS_WindDir_IsbL-0800_RLatLon0.09_PT011H.grib2 2026-04-27 08:42 796K
20260427T06Z_MSC_RDPS_WindDir_IsbL-0850_RLatLon0.09_PT011H.grib2 2026-04-27 08:42 869K
20260427T06Z_MSC_RDPS_WindDir_IsbL-0875_RLatLon0.09_PT011H.grib2 2026-04-27 08:42 894K
20260427T06Z_MSC_RDPS_WindDir_IsbL-0900_RLatLon0.09_PT011H.grib2 2026-04-27 08:42 912K
20260427T06Z_MSC_RDPS_WindDir_IsbL-0925_RLatLon0.09_PT011H.grib2 2026-04-27 08:42 922K
20260427T06Z_MSC_RDPS_WindDir_IsbL-0950_RLatLon0.09_PT011H.grib2 2026-04-27 08:42 922K
20260427T06Z_MSC_RDPS_WindDir_IsbL-0970_RLatLon0.09_PT011H.grib2 2026-04-27 08:42 928K
20260427T06Z_MSC_RDPS_WindDir_IsbL-0985_RLatLon0.09_PT011H.grib2 2026-04-27 08:42 940K
20260427T06Z_MSC_RDPS_WindDir_IsbL-1000_RLatLon0.09_PT011H.grib2 2026-04-27 08:42 955K
20260427T06Z_MSC_RDPS_WindDir_IsbL-1015_RLatLon0.09_PT011H.grib2 2026-04-27 08:42 972K
20260427T06Z_MSC_RDPS_WindGust-Max_AGL-10m_RLatLon0.09_PT011H.grib2 2026-04-27 08:42 949K
20260427T06Z_MSC_RDPS_WindGust-Min_AGL-10m_RLatLon0.09_PT011H.grib2 2026-04-27 08:42 1.0M
20260427T06Z_MSC_RDPS_WindGust_AGL-10m_RLatLon0.09_PT011H.grib2 2026-04-27 08:42 1.0M
20260427T06Z_MSC_RDPS_WindSpeed_AGL-10m_RLatLon0.09_PT011H.grib2 2026-04-27 08:42 850K
20260427T06Z_MSC_RDPS_WindSpeed_AGL-120m_RLatLon0.09_PT011H.grib2 2026-04-27 08:42 550K
20260427T06Z_MSC_RDPS_WindSpeed_AGL-40m_RLatLon0.09_PT011H.grib2 2026-04-27 08:42 544K
20260427T06Z_MSC_RDPS_WindSpeed_AGL-80m_RLatLon0.09_PT011H.grib2 2026-04-27 08:42 551K
20260427T06Z_MSC_RDPS_WindSpeed_IsbL-0001_RLatLon0.09_PT011H.grib2 2026-04-27 08:42 250K
20260427T06Z_MSC_RDPS_WindSpeed_IsbL-0005_RLatLon0.09_PT011H.grib2 2026-04-27 08:42 293K
20260427T06Z_MSC_RDPS_WindSpeed_IsbL-0010_RLatLon0.09_PT011H.grib2 2026-04-27 08:42 304K
20260427T06Z_MSC_RDPS_WindSpeed_IsbL-0020_RLatLon0.09_PT011H.grib2 2026-04-27 08:42 318K
20260427T06Z_MSC_RDPS_WindSpeed_IsbL-0030_RLatLon0.09_PT011H.grib2 2026-04-27 08:42 314K
20260427T06Z_MSC_RDPS_WindSpeed_IsbL-0050_RLatLon0.09_PT011H.grib2 2026-04-27 08:42 347K
20260427T06Z_MSC_RDPS_WindSpeed_IsbL-0100_RLatLon0.09_PT011H.grib2 2026-04-27 08:42 470K
20260427T06Z_MSC_RDPS_WindSpeed_IsbL-0150_RLatLon0.09_PT011H.grib2 2026-04-27 08:42 370K
20260427T06Z_MSC_RDPS_WindSpeed_IsbL-0175_RLatLon0.09_PT011H.grib2 2026-04-27 08:42 399K
20260427T06Z_MSC_RDPS_WindSpeed_IsbL-0200_RLatLon0.09_PT011H.grib2 2026-04-27 08:42 436K
20260427T06Z_MSC_RDPS_WindSpeed_IsbL-0225_RLatLon0.09_PT011H.grib2 2026-04-27 08:42 444K
20260427T06Z_MSC_RDPS_WindSpeed_IsbL-0250_RLatLon0.09_PT011H.grib2 2026-04-27 08:42 449K
20260427T06Z_MSC_RDPS_WindSpeed_IsbL-0275_RLatLon0.09_PT011H.grib2 2026-04-27 08:42 465K
20260427T06Z_MSC_RDPS_WindSpeed_IsbL-0300_RLatLon0.09_PT011H.grib2 2026-04-27 08:42 463K
20260427T06Z_MSC_RDPS_WindSpeed_IsbL-0350_RLatLon0.09_PT011H.grib2 2026-04-27 08:42 472K
20260427T06Z_MSC_RDPS_WindSpeed_IsbL-0400_RLatLon0.09_PT011H.grib2 2026-04-27 08:42 456K
20260427T06Z_MSC_RDPS_WindSpeed_IsbL-0450_RLatLon0.09_PT011H.grib2 2026-04-27 08:42 454K
20260427T06Z_MSC_RDPS_WindSpeed_IsbL-0500_RLatLon0.09_PT011H.grib2 2026-04-27 08:42 453K
20260427T06Z_MSC_RDPS_WindSpeed_IsbL-0550_RLatLon0.09_PT011H.grib2 2026-04-27 08:42 453K
20260427T06Z_MSC_RDPS_WindSpeed_IsbL-0600_RLatLon0.09_PT011H.grib2 2026-04-27 08:42 582K
20260427T06Z_MSC_RDPS_WindSpeed_IsbL-0650_RLatLon0.09_PT011H.grib2 2026-04-27 08:42 608K
20260427T06Z_MSC_RDPS_WindSpeed_IsbL-0700_RLatLon0.09_PT011H.grib2 2026-04-27 08:42 636K
20260427T06Z_MSC_RDPS_WindSpeed_IsbL-0750_RLatLon0.09_PT011H.grib2 2026-04-27 08:42 708K
20260427T06Z_MSC_RDPS_WindSpeed_IsbL-0800_RLatLon0.09_PT011H.grib2 2026-04-27 08:42 760K
20260427T06Z_MSC_RDPS_WindSpeed_IsbL-0850_RLatLon0.09_PT011H.grib2 2026-04-27 08:42 773K
20260427T06Z_MSC_RDPS_WindSpeed_IsbL-0875_RLatLon0.09_PT011H.grib2 2026-04-27 08:42 793K
20260427T06Z_MSC_RDPS_WindSpeed_IsbL-0900_RLatLon0.09_PT011H.grib2 2026-04-27 08:42 852K
20260427T06Z_MSC_RDPS_WindSpeed_IsbL-0925_RLatLon0.09_PT011H.grib2 2026-04-27 08:42 860K
20260427T06Z_MSC_RDPS_WindSpeed_IsbL-0950_RLatLon0.09_PT011H.grib2 2026-04-27 08:42 857K
20260427T06Z_MSC_RDPS_WindSpeed_IsbL-0970_RLatLon0.09_PT011H.grib2 2026-04-27 08:42 860K
20260427T06Z_MSC_RDPS_WindSpeed_IsbL-0985_RLatLon0.09_PT011H.grib2 2026-04-27 08:42 860K
20260427T06Z_MSC_RDPS_WindSpeed_IsbL-1000_RLatLon0.09_PT011H.grib2 2026-04-27 08:42 855K
20260427T06Z_MSC_RDPS_WindSpeed_IsbL-1015_RLatLon0.09_PT011H.grib2 2026-04-27 08:42 848K
20260427T06Z_MSC_RDPS_WindU_AGL-10m_RLatLon0.09_PT011H.grib2 2026-04-27 08:42 440K
20260427T06Z_MSC_RDPS_WindU_AGL-120m_RLatLon0.09_PT011H.grib2 2026-04-27 08:42 420K
20260427T06Z_MSC_RDPS_WindU_AGL-40m_RLatLon0.09_PT011H.grib2 2026-04-27 08:42 424K
20260427T06Z_MSC_RDPS_WindU_AGL-80m_RLatLon0.09_PT011H.grib2 2026-04-27 08:42 421K
20260427T06Z_MSC_RDPS_WindU_IsbL-0001_RLatLon0.09_PT011H.grib2 2026-04-27 08:42 291K
20260427T06Z_MSC_RDPS_WindU_IsbL-0005_RLatLon0.09_PT011H.grib2 2026-04-27 08:42 330K
20260427T06Z_MSC_RDPS_WindU_IsbL-0010_RLatLon0.09_PT011H.grib2 2026-04-27 08:42 295K
20260427T06Z_MSC_RDPS_WindU_IsbL-0020_RLatLon0.09_PT011H.grib2 2026-04-27 08:42 348K
20260427T06Z_MSC_RDPS_WindU_IsbL-0030_RLatLon0.09_PT011H.grib2 2026-04-27 08:42 346K
20260427T06Z_MSC_RDPS_WindU_IsbL-0050_RLatLon0.09_PT011H.grib2 2026-04-27 08:42 377K
20260427T06Z_MSC_RDPS_WindU_IsbL-0100_RLatLon0.09_PT011H.grib2 2026-04-27 08:42 427K
20260427T06Z_MSC_RDPS_WindU_IsbL-0150_RLatLon0.09_PT011H.grib2 2026-04-27 08:42 388K
20260427T06Z_MSC_RDPS_WindU_IsbL-0175_RLatLon0.09_PT011H.grib2 2026-04-27 08:42 413K
20260427T06Z_MSC_RDPS_WindU_IsbL-0200_RLatLon0.09_PT011H.grib2 2026-04-27 08:42 331K
20260427T06Z_MSC_RDPS_WindU_IsbL-0225_RLatLon0.09_PT011H.grib2 2026-04-27 08:42 337K
20260427T06Z_MSC_RDPS_WindU_IsbL-0250_RLatLon0.09_PT011H.grib2 2026-04-27 08:42 339K
20260427T06Z_MSC_RDPS_WindU_IsbL-0275_RLatLon0.09_PT011H.grib2 2026-04-27 08:42 353K
20260427T06Z_MSC_RDPS_WindU_IsbL-0300_RLatLon0.09_PT011H.grib2 2026-04-27 08:42 349K
20260427T06Z_MSC_RDPS_WindU_IsbL-0350_RLatLon0.09_PT011H.grib2 2026-04-27 08:42 356K
20260427T06Z_MSC_RDPS_WindU_IsbL-0400_RLatLon0.09_PT011H.grib2 2026-04-27 08:42 460K
20260427T06Z_MSC_RDPS_WindU_IsbL-0450_RLatLon0.09_PT011H.grib2 2026-04-27 08:42 461K
20260427T06Z_MSC_RDPS_WindU_IsbL-0500_RLatLon0.09_PT011H.grib2 2026-04-27 08:42 461K
20260427T06Z_MSC_RDPS_WindU_IsbL-0550_RLatLon0.09_PT011H.grib2 2026-04-27 08:42 462K
20260427T06Z_MSC_RDPS_WindU_IsbL-0600_RLatLon0.09_PT011H.grib2 2026-04-27 08:42 473K
20260427T06Z_MSC_RDPS_WindU_IsbL-0650_RLatLon0.09_PT011H.grib2 2026-04-27 08:42 493K
20260427T06Z_MSC_RDPS_WindU_IsbL-0700_RLatLon0.09_PT011H.grib2 2026-04-27 08:42 517K
20260427T06Z_MSC_RDPS_WindU_IsbL-0750_RLatLon0.09_PT011H.grib2 2026-04-27 08:42 543K
20260427T06Z_MSC_RDPS_WindU_IsbL-0800_RLatLon0.09_PT011H.grib2 2026-04-27 08:42 588K
20260427T06Z_MSC_RDPS_WindU_IsbL-0850_RLatLon0.09_PT011H.grib2 2026-04-27 08:42 636K
20260427T06Z_MSC_RDPS_WindU_IsbL-0875_RLatLon0.09_PT011H.grib2 2026-04-27 08:42 652K
20260427T06Z_MSC_RDPS_WindU_IsbL-0900_RLatLon0.09_PT011H.grib2 2026-04-27 08:42 654K
20260427T06Z_MSC_RDPS_WindU_IsbL-0925_RLatLon0.09_PT011H.grib2 2026-04-27 08:42 659K
20260427T06Z_MSC_RDPS_WindU_IsbL-0950_RLatLon0.09_PT011H.grib2 2026-04-27 08:42 655K
20260427T06Z_MSC_RDPS_WindU_IsbL-0970_RLatLon0.09_PT011H.grib2 2026-04-27 08:42 655K
20260427T06Z_MSC_RDPS_WindU_IsbL-0985_RLatLon0.09_PT011H.grib2 2026-04-27 08:42 655K
20260427T06Z_MSC_RDPS_WindU_IsbL-1000_RLatLon0.09_PT011H.grib2 2026-04-27 08:42 793K
20260427T06Z_MSC_RDPS_WindU_IsbL-1015_RLatLon0.09_PT011H.grib2 2026-04-27 08:42 790K
20260427T06Z_MSC_RDPS_WindV_AGL-10m_RLatLon0.09_PT011H.grib2 2026-04-27 08:42 438K
20260427T06Z_MSC_RDPS_WindV_AGL-120m_RLatLon0.09_PT011H.grib2 2026-04-27 08:42 418K
20260427T06Z_MSC_RDPS_WindV_AGL-40m_RLatLon0.09_PT011H.grib2 2026-04-27 08:42 539K
20260427T06Z_MSC_RDPS_WindV_AGL-80m_RLatLon0.09_PT011H.grib2 2026-04-27 08:42 420K
20260427T06Z_MSC_RDPS_WindV_IsbL-0001_RLatLon0.09_PT011H.grib2 2026-04-27 08:42 265K
20260427T06Z_MSC_RDPS_WindV_IsbL-0005_RLatLon0.09_PT011H.grib2 2026-04-27 08:42 328K
20260427T06Z_MSC_RDPS_WindV_IsbL-0010_RLatLon0.09_PT011H.grib2 2026-04-27 08:42 295K
20260427T06Z_MSC_RDPS_WindV_IsbL-0020_RLatLon0.09_PT011H.grib2 2026-04-27 08:42 310K
20260427T06Z_MSC_RDPS_WindV_IsbL-0030_RLatLon0.09_PT011H.grib2 2026-04-27 08:42 310K
20260427T06Z_MSC_RDPS_WindV_IsbL-0050_RLatLon0.09_PT011H.grib2 2026-04-27 08:42 341K
20260427T06Z_MSC_RDPS_WindV_IsbL-0100_RLatLon0.09_PT011H.grib2 2026-04-27 08:42 327K
20260427T06Z_MSC_RDPS_WindV_IsbL-0150_RLatLon0.09_PT011H.grib2 2026-04-27 08:42 386K
20260427T06Z_MSC_RDPS_WindV_IsbL-0175_RLatLon0.09_PT011H.grib2 2026-04-27 08:42 319K
20260427T06Z_MSC_RDPS_WindV_IsbL-0200_RLatLon0.09_PT011H.grib2 2026-04-27 08:42 331K
20260427T06Z_MSC_RDPS_WindV_IsbL-0225_RLatLon0.09_PT011H.grib2 2026-04-27 08:42 362K
20260427T06Z_MSC_RDPS_WindV_IsbL-0250_RLatLon0.09_PT011H.grib2 2026-04-27 08:42 364K
20260427T06Z_MSC_RDPS_WindV_IsbL-0275_RLatLon0.09_PT011H.grib2 2026-04-27 08:42 376K
20260427T06Z_MSC_RDPS_WindV_IsbL-0300_RLatLon0.09_PT011H.grib2 2026-04-27 08:42 372K
20260427T06Z_MSC_RDPS_WindV_IsbL-0350_RLatLon0.09_PT011H.grib2 2026-04-27 08:42 354K
20260427T06Z_MSC_RDPS_WindV_IsbL-0400_RLatLon0.09_PT011H.grib2 2026-04-27 08:42 354K
20260427T06Z_MSC_RDPS_WindV_IsbL-0450_RLatLon0.09_PT011H.grib2 2026-04-27 08:42 354K
20260427T06Z_MSC_RDPS_WindV_IsbL-0500_RLatLon0.09_PT011H.grib2 2026-04-27 08:42 455K
20260427T06Z_MSC_RDPS_WindV_IsbL-0550_RLatLon0.09_PT011H.grib2 2026-04-27 08:42 456K
20260427T06Z_MSC_RDPS_WindV_IsbL-0600_RLatLon0.09_PT011H.grib2 2026-04-27 08:42 467K
20260427T06Z_MSC_RDPS_WindV_IsbL-0650_RLatLon0.09_PT011H.grib2 2026-04-27 08:42 489K
20260427T06Z_MSC_RDPS_WindV_IsbL-0700_RLatLon0.09_PT011H.grib2 2026-04-27 08:42 512K
20260427T06Z_MSC_RDPS_WindV_IsbL-0750_RLatLon0.09_PT011H.grib2 2026-04-27 08:42 537K
20260427T06Z_MSC_RDPS_WindV_IsbL-0800_RLatLon0.09_PT011H.grib2 2026-04-27 08:42 569K
20260427T06Z_MSC_RDPS_WindV_IsbL-0850_RLatLon0.09_PT011H.grib2 2026-04-27 08:42 621K
20260427T06Z_MSC_RDPS_WindV_IsbL-0875_RLatLon0.09_PT011H.grib2 2026-04-27 08:42 640K
20260427T06Z_MSC_RDPS_WindV_IsbL-0900_RLatLon0.09_PT011H.grib2 2026-04-27 08:42 650K
20260427T06Z_MSC_RDPS_WindV_IsbL-0925_RLatLon0.09_PT011H.grib2 2026-04-27 08:42 655K
20260427T06Z_MSC_RDPS_WindV_IsbL-0950_RLatLon0.09_PT011H.grib2 2026-04-27 08:42 652K
20260427T06Z_MSC_RDPS_WindV_IsbL-0970_RLatLon0.09_PT011H.grib2 2026-04-27 08:42 652K
20260427T06Z_MSC_RDPS_WindV_IsbL-0985_RLatLon0.09_PT011H.grib2 2026-04-27 08:42 793K
20260427T06Z_MSC_RDPS_WindV_IsbL-1000_RLatLon0.09_PT011H.grib2 2026-04-27 08:42 793K
20260427T06Z_MSC_RDPS_WindV_IsbL-1015_RLatLon0.09_PT011H.grib2 2026-04-27 08:42 787K